DECAYED

STARLINK-1142, 45093 (Decayed)

Orbit data source: Space-Track

STARLINK-1142, 45093 was a payload satellite owned by SpaceX/Seattle (US) in LEO that was launched on Wed, 29 Jan 2020 UTC via an FALCON 9 launch vehicle from the Air Force Eastern Test Range (AFETR). Payload-class satellites include a variety of spacecraft equipped with specific instruments for various scientific and technological missions. These include communications satellites like Starlink; space stations such as the ISS; scientific satellites like the Hubble; Earth observation satellites from companies like Planet Labs, Umbra, and HawkEye 360; GPS; miniature CubeSats for education and research; and military/defense satellites.

Not visible in the next 10 days
Identifier
45093, 2020-006BB
Orbit
Decayed
Country
Flag of USUS
Related business
Manufacturer
SpaceX/Seattle
Mission
Decayed Commercial Communications
Bus & Motor
STARLINK, Unknown motor
Mass
260 kg wet, ~248 kg dry
Launch date (UTC)
2020-01-29 (7 years ago)
Launch vehicle
FALCON 9
Launch site
Air Force Eastern Test Range (AFETR)
Object type
Payload
Rocket body
Debris
Shape & HBR
Box + 1 Pan, 10.1 m
Radar Cross Section
13.562 m², Large (>1 m²)

Expand to show TLE details & history
Last TLE update: 9 months ago

TLE from 9 months ago
0 STARLINK-1142
1 45093U 20006BB  25360.81038878  .12910013  12526-4  48895-3 0  9992
2 45093  53.0093 116.9913 0007005 301.0957  58.9403 16.43654353327393
Epoch: 2025-12-26T19:26Z
TLE epoch observation values (Epoch: 2025-12-26T19:26:57.590Z)
Latitude
-0.00001°
Longitude
89.7056°
Altitude
154.667 km
Speed
7.816 km/s
True Right ascension
07h 47m 57s
True Declination
0° 00' 00"
Sunlit
Object was in full shadow at epoch
Visualization orbit readout
Latitude
Unknown
Longitude
Unknown
Altitude
Unknown
Speed
Unknown
Apparent Right ascension
Unknown
Apparent Declination
Unknown
Sunlit
N/A
Visualization observer readout
Local Sidereal Time
07:10:43
Azimuth
Unknown
Elevation
Unknown
Doppler factor
Unknown
Orbital elements
Apogee altitude
160.971 km
Perigee altitude
151.816 km
Semi-major axis
6,534.531 km
Eccentricity
0.0007
Inclination
53.0093°
RAAN
116.9913°
Arg. of periapsis
301.0957°
True anomaly
59.00909°
Mean anomaly
58.9403°
Eccentric anomaly
58.97469°
Mean motion
4.10886 °/min
Orbital period
87.62 mins
BSTAR
0.00048895
Loading maneuver chart data...
Computing Atmospheric mass density...

Documentation

Showing up to 5 results
|